STARLINK-30306 (57633 NORAD) Tracking and Keplerian Element Data

This shows tracking and keplerian element data for the satellite.

Feedback or suggestion? Click here.




ElementValue
Catalog57633
NameSTARLINK-30306
Epoch Orbit279
Epoch Day238.91667824
Epoch Year2023
RAAN95.9317
Inclination43.0007
Eccentricity0.0003397
Argument of Perigee179.2353
Mean Anonmoly243.0013
Mean Motion15.86042703
Decay Rate-0.00917922
L11 57633U 23122B 23238.91667824 -.00917922 00000+0 -39823-2 0 9993
L22 57633 43.0007 95.9317 0003397 179.2353 243.0013 15.86042703 2793



Live tracking and technical data element details for STARLINK-30306 (NORAD 57633). STARLINK-30306 can be tracked NOW for your location showing map with azimuth and elevation plus other details from your city location.







IsCatalogInMostPopularTable: catalog: 57633, numindb: 6
Update: records affected: 1



GetName: 57633 STARLINK-30306

Hit Count: updated at: Tue, 26 Sep 2023 13:10:56 GMT